• In Deutschland
  • Länderverzeichnis
  • Für 7 Tage
  • Wassertemperatur
  • Satellitenkarten
  • Wetterkarte
  • Widgets
  • user-avatar
    Anmelden

    Stündliche Wetter Mykhailyuky

    Heute, 28 Mai, Montag

    Zeit Temperatur Niederschläge Wind Luftdruck Luftfeuchtigkeit
    00:00 +12°C° 0 mm 1 m/S 755 mmHg 67%
    01:00 +11°C° 0 mm 1 m/S 755 mmHg 67%
    02:00 +11°C° 0 mm 1 m/S 755 mmHg 66%
    03:00 +10°C° 0 mm 2 m/S 755 mmHg 66%
    04:00 +11°C° 0 mm 1 m/S 755 mmHg 67%
    05:00 +12°C° 0 mm 1 m/S 755 mmHg 67%
    06:00 +12°C° 0 mm 1 m/S 755 mmHg 68%
    07:00 +14°C° 0 mm 2 m/S 755 mmHg 62%
    08:00 +16°C° 0 mm 2 m/S 755 mmHg 56%
    09:00 +18°C° 0 mm 3 m/S 755 mmHg 50%
    10:00 +20°C° 0 mm 3 m/S 755 mmHg 48%
    11:00 +21°C° 0 mm 3 m/S 755 mmHg 46%
    12:00 +22°C° 0 mm 3 m/S 755 mmHg 44%
    13:00 +23°C° 0 mm 4 m/S 754 mmHg 44%
    14:00 +23°C° 0 mm 4 m/S 754 mmHg 44%
    15:00 +25°C° 0 mm 4 m/S 754 mmHg 45%
    16:00 +25°C° 0 mm 4 m/S 754 mmHg 49%
    17:00 +24°C° 0 mm 3 m/S 754 mmHg 54%
    18:00 +24°C° 0 mm 3 m/S 754 mmHg 58%
    19:00 +21°C° 0 mm 3 m/S 754 mmHg 66%
    20:00 +20°C° 0 mm 4 m/S 754 mmHg 73%
    21:00 +18°C° 0 mm 4 m/S 754 mmHg 80%
    22:00 +17°C° 0 mm 4 m/S 755 mmHg 80%
    23:00 +15°C° 0 mm 5 m/S 755 mmHg 80%

    Morgen, 29 Mai, Dienstag

    Zeit Temperatur Niederschläge Wind Luftdruck Luftfeuchtigkeit
    00:00 +14°C° 0 mm 5 m/S 755 mmHg 79%
    01:00 +14°C° 0 mm 5 m/S 756 mmHg 78%
    02:00 +13°C° 0 mm 5 m/S 756 mmHg 76%
    03:00 +12°C° 0 mm 5 m/S 756 mmHg 75%
    04:00 +10°C° 0 mm 5 m/S 757 mmHg 74%
    05:00 +10°C° 0 mm 5 m/S 757 mmHg 73%
    06:00 +10°C° 0 mm 5 m/S 757 mmHg 73%
    07:00 +12°C° 0 mm 5 m/S 757 mmHg 67%
    08:00 +14°C° 0 mm 6 m/S 757 mmHg 61%
    09:00 +15°C° 0 mm 6 m/S 758 mmHg 56%
    10:00 +16°C° 0 mm 6 m/S 757 mmHg 53%
    11:00 +17°C° 0 mm 6 m/S 757 mmHg 51%
    12:00 +19°C° 0 mm 6 m/S 757 mmHg 49%
    13:00 +19°C° 0 mm 6 m/S 757 mmHg 49%
    14:00 +20°C° 0 mm 6 m/S 757 mmHg 49%
    15:00 +20°C° 0 mm 6 m/S 756 mmHg 49%
    16:00 +20°C° 0 mm 5 m/S 756 mmHg 51%
    17:00 +19°C° 0 mm 5 m/S 756 mmHg 53%
    18:00 +19°C° 0 mm 5 m/S 755 mmHg 55%
    19:00 +17°C° 0 mm 4 m/S 755 mmHg 59%
    20:00 +16°C° 0 mm 3 m/S 755 mmHg 63%
    21:00 +13°C° 0 mm 3 m/S 755 mmHg 68%
    22:00 +12°C° 0 mm 3 m/S 755 mmHg 68%
    23:00 +13°C° 0 mm 2 m/S 755 mmHg 69%

    übermorgen, 30 Mai, Mittwoch

    Zeit Temperatur Niederschläge Wind Luftdruck Luftfeuchtigkeit
    00:00 +12°C° 0 mm 2 m/S 755 mmHg 70%
    01:00 +12°C° 0 mm 2 m/S 755 mmHg 70%
    02:00 +10°C° 0 mm 2 m/S 754 mmHg 70%
    03:00 +10°C° 0 mm 2 m/S 754 mmHg 71%
    04:00 +10°C° 0 mm 2 m/S 754 mmHg 71%
    05:00 +12°C° 0 mm 2 m/S 754 mmHg 71%
    06:00 +12°C° 0 mm 2 m/S 754 mmHg 70%
    07:00 +14°C° 0 mm 2 m/S 754 mmHg 63%
    08:00 +16°C° 0 mm 2 m/S 754 mmHg 55%
    09:00 +18°C° 0 mm 2 m/S 753 mmHg 48%
    10:00 +19°C° 0 mm 2 m/S 753 mmHg 45%
    11:00 +20°C° 0 mm 2 m/S 753 mmHg 42%
    12:00 +23°C° 0 mm 2 m/S 752 mmHg 39%
    13:00 +23°C° 0 mm 2 m/S 752 mmHg 38%
    14:00 +24°C° 0 mm 2 m/S 751 mmHg 38%
    15:00 +24°C° 0 mm 2 m/S 751 mmHg 37%
    16:00 +24°C° 0 mm 2 m/S 750 mmHg 39%
    17:00 +24°C° 0 mm 1 m/S 750 mmHg 41%
    18:00 +24°C° 0 mm 1 m/S 750 mmHg 43%
    19:00 +22°C° 0 mm 1 m/S 749 mmHg 47%
    20:00 +20°C° 0 mm 1 m/S 749 mmHg 51%
    21:00 +18°C° 0 mm 1 m/S 749 mmHg 55%
    22:00 +16°C° 0 mm 1 m/S 749 mmHg 57%
    23:00 +14°C° 0 mm 0 m/S 749 mmHg 58%

    31 Mai, Donnerstag

    Zeit Temperatur Niederschläge Wind Luftdruck Luftfeuchtigkeit
    00:00 +14°C° 0 mm 0 m/S 748 mmHg 60%
    01:00 +13°C° 0 mm 0 m/S 748 mmHg 60%
    02:00 +13°C° 0 mm 0 m/S 748 mmHg 61%
    03:00 +13°C° 0 mm 0 m/S 747 mmHg 62%
    04:00 +13°C° 0 mm 0 m/S 747 mmHg 63%
    05:00 +14°C° 0 mm 0 m/S 747 mmHg 63%
    06:00 +15°C° 0 mm 0 m/S 747 mmHg 64%
    07:00 +17°C° 0 mm 0 m/S 746 mmHg 58%
    08:00 +21°C° 0 mm 1 m/S 746 mmHg 53%
    09:00 +22°C° 0 mm 1 m/S 746 mmHg 47%
    10:00 +24°C° 0 mm 1 m/S 746 mmHg 44%
    11:00 +25°C° 0 mm 1 m/S 745 mmHg 41%
    12:00 +26°C° 0 mm 1 m/S 745 mmHg 37%
    13:00 +26°C° 0 mm 1 m/S 744 mmHg 36%
    14:00 +27°C° 0 mm 1 m/S 744 mmHg 35%
    15:00 +28°C° 0 mm 1 m/S 744 mmHg 34%
    16:00 +27°C° 0 mm 1 m/S 743 mmHg 37%
    17:00 +27°C° 0 mm 1 m/S 743 mmHg 39%
    18:00 +27°C° 0 mm 1 m/S 743 mmHg 41%
    19:00 +25°C° 0 mm 1 m/S 743 mmHg 46%
    20:00 +23°C° 0 mm 1 m/S 743 mmHg 50%
    21:00 +20°C° 0 mm 1 m/S 743 mmHg 55%
    22:00 +20°C° 0 mm 1 m/S 743 mmHg 57%
    23:00 +19°C° 0 mm 1 m/S 743 mmHg 59%

    1 Juni, Freitag

    Zeit Temperatur Niederschläge Wind Luftdruck Luftfeuchtigkeit
    00:00 +16°C° 0 mm 0 m/S 742 mmHg 61%
    01:00 +18°C° 0 mm 1 m/S 742 mmHg 63%
    02:00 +18°C° 0 mm 1 m/S 742 mmHg 65%
    03:00 +16°C° 0 mm 1 m/S 742 mmHg 67%
    04:00 +18°C° 0 mm 1 m/S 742 mmHg 69%
    05:00 +18°C° 0 mm 1 m/S 742 mmHg 72%
    06:00 +17°C° 0 mm 2 m/S 742 mmHg 74%
    07:00 +19°C° 0 mm 2 m/S 743 mmHg 69%
    08:00 +21°C° 0 mm 2 m/S 743 mmHg 65%
    09:00 +24°C° 0 mm 3 m/S 743 mmHg 61%
    10:00 +25°C° 0,1 mm 3 m/S 743 mmHg 57%
    11:00 +26°C° 0,1 mm 3 m/S 743 mmHg 54%
    12:00 +27°C° 0,1 mm 3 m/S 743 mmHg 50%
    13:00 +27°C° 0 mm 3 m/S 743 mmHg 51%
    14:00 +27°C° 0 mm 4 m/S 743 mmHg 52%
    15:00 +27°C° 0 mm 4 m/S 742 mmHg 53%
    16:00 +26°C° 0,4 mm 5 m/S 742 mmHg 58%
    17:00 +25°C° 0,4 mm 5 m/S 742 mmHg 63%
    18:00 +23°C° 0,4 mm 6 m/S 742 mmHg 68%
    19:00 +21°C° 0 mm 6 m/S 743 mmHg 73%
    20:00 +20°C° 0 mm 6 m/S 743 mmHg 79%
    21:00 +17°C° 0 mm 6 m/S 743 mmHg 84%
    22:00 +17°C° 0 mm 6 m/S 743 mmHg 85%
    23:00 +16°C° 0 mm 6 m/S 743 mmHg 87%

    2 Juni, Samstag

    Zeit Temperatur Niederschläge Wind Luftdruck Luftfeuchtigkeit
    00:00 +15°C° 0 mm 6 m/S 744 mmHg 88%
    01:00 +15°C° 0 mm 6 m/S 744 mmHg 88%
    02:00 +15°C° 0 mm 6 m/S 744 mmHg 87%
    03:00 +14°C° 0 mm 6 m/S 744 mmHg 86%
    04:00 +14°C° 0 mm 6 m/S 744 mmHg 84%
    05:00 +14°C° 0 mm 6 m/S 744 mmHg 82%
    06:00 +14°C° 0 mm 6 m/S 745 mmHg 81%
    07:00 +15°C° 0 mm 6 m/S 745 mmHg 77%
    08:00 +16°C° 0 mm 7 m/S 745 mmHg 73%
    09:00 +17°C° 0 mm 7 m/S 745 mmHg 69%
    10:00 +18°C° 0 mm 7 m/S 745 mmHg 66%
    11:00 +21°C° 0 mm 7 m/S 745 mmHg 63%
    12:00 +22°C° 0 mm 7 m/S 745 mmHg 60%
    13:00 +22°C° 0 mm 7 m/S 745 mmHg 59%
    14:00 +23°C° 0 mm 7 m/S 745 mmHg 59%
    15:00 +23°C° 0 mm 8 m/S 745 mmHg 58%
    16:00 +23°C° 0,1 mm 7 m/S 745 mmHg 60%
    17:00 +22°C° 0,1 mm 7 m/S 745 mmHg 62%
    18:00 +22°C° 0,1 mm 7 m/S 745 mmHg 64%
    19:00 +20°C° 0,1 mm 6 m/S 746 mmHg 67%
    20:00 +19°C° 0,1 mm 6 m/S 746 mmHg 71%
    21:00 +16°C° 0,1 mm 6 m/S 746 mmHg 74%
    22:00 +16°C° 0,1 mm 6 m/S 746 mmHg 76%
    23:00 +16°C° 0,1 mm 5 m/S 746 mmHg 78%
    Mehr zeigen